Starlink 33809

operational
NORAD ID: 63508 Int'l Des: 2025-071 Owner: SPXS Country: US Constellation: starlink
LEOCIRCULAR

Starlink 33809について

説明を読み込み中...

リアルタイム位置

3D地球を読み込み中...

次回通過

高度履歴

Altitude vs Time

uPlot chart will show altitude changes over time

軌道要素

1 63508U 25071R 26034.15147039 .00026494 00000-0 90292-3 0 9992
2 63508 53.1592 300.1957 0000965 281.9877 78.1015 15.30218854 47422
Epoch: Feb 3, 2026 • Age: 13 hours

現在のステータス

高度 481.3 km
速度 7.62 km/s
衛星直下点 -22.54°S, 105.48°E
打ち上げ日 Apr 7, 2025
運用期間 0.8 years
タイプ internet

技術仕様

分類 Payload
質量 575.00 kg
乾燥質量 530.00 kg
総質量 575.00 kg
長さ 0.30 m
直径 4.10 m
スパン 29.00 m
形状 Box + pan
製造者 SPXS
バスタイプ Starlink V2MO
フェーズステータス In Orbit
所有者/国 SPXS/US

大規模コンステレーション

Loading constellations...